sat.trackr.live / text

‹ back to catalog

STARLINK-5255

NORAD 54208 · 2022-141BD

PAYLOAD ACTIVE UNKNOWN

§ Identity

Operator
Country
US
Launch date
2022-10-28
Launch site
AFWTR
Launch vehicle
Mass (kg)
RCS (m²)

Purposes: comms

External: N2YO · Heavens-Above · Gunter

§ Orbital elements

Epoch: 2026-09-20T00:43:35.371200Z

Period
94.01 min
Inclination
53.1603°
Eccentricity
0.0001486
Mean motion
15.31699506 rev/d
Perigee alt
469.7 km
Apogee alt
471.8 km
Semi-major
6,848.9 km
B*
-1.3827e-6
RAAN
165.0763°
Arg perigee
80.7586°
Mean anomaly
279.3584°
Rev number
21,584

§ Raw data

STARLINK-52551 54208U 22141BD  26263.03027050 -.00000408  00000+0 -13827-5 0  99942 54208  53.1603 165.0763 0001486  80.7586 279.3584 15.31699506215843

JSON: /api/v1/satellites/54208 · /tle

For live sub-satellite position, see the globe view (requires WebGL).

§ Visibility from observer

Set your observer location to see the next 7 days of passes ≥ 10°. The values pass through the URL so the page stays shareable.

No JS? Fill the form by hand. The geolocation button needs JavaScript.